Regional Weather Roundup
Issued by NWS

Home | Current Version | Previous Version | Text Only | Print | Product List | Glossary Off
Versions: 1 2 3 4 5 6 7 8 9 10 11 12 13 14 15 16 17 18 19 20 21 22 23 24 25 26 27 28 29 30 31 32 33 34 35 36 37 38 39 40 41 42 43 44 45 46 47 48 49 50

000
ASUS43 KBIS 271810
RWRND

NORTH DAKOTA REGIONAL WEATHER ROUNDUP
NATIONAL WEATHER SERVICE BISMARCK ND
1200 PM CST THU NOV 27 2014

NOTE: "FAIR" INDICATES FEW OR NO CLOUDS BELOW 12,000 FEET WITH NO
SIGNIFICANT WEATHER AND/OR OBSTRUCTIONS TO VISIBILITY.


NDZ001>003-009>011-017-271900-
NORTHWEST NORTH DAKOTA

CITY           SKY/WX    TMP DP  RH WIND       PRES   REMARKS
WILLISTON      SNOW      20  16  84 E10       30.01F VSB 1/2 WCI   9
6HR MIN TEMP:   9; 6HR MAX TEMP:  20; 6HR PCP:  0.01;

MINOT          CLOUDY    11   4  73 SE10      30.13F WCI  -3
MINOT AFB      CLOUDY    10   9  94 SE12      30.14F WCI  -4
$$

NDZ018>021-031>035-040>046-271900-
SOUTHWEST NORTH DAKOTA

CITY           SKY/WX    TMP DP  RH WIND       PRES   REMARKS
BISMARCK       CLOUDY     7   3  84 SE14      30.21F WCI -10
6HR MIN TEMP:  -9; 6HR MAX TEMP:   7;

DICKINSON      CLOUDY    19  15  84 S21G29    29.99F WCI   3
GARRISON         N/A     10   8  92 SE12      30.14F WCI  -5
6HR MIN TEMP:   5; 6HR MAX TEMP:  10;

HETTINGER ARPT CLOUDY    19  15  84 SE14      30.04F WCI   6
$$

NDZ004>008-012>016-024-026-027-054-271900-
NORTHEAST NORTH DAKOTA

CITY           SKY/WX    TMP DP  RH WIND       PRES   REMARKS
GRAND FORKS    PTSUNNY    3  -5  69 S10       30.43F WCI -12
GRND FRKS AFB  FAIR       4  -6  62 SW10      30.41F WCI -11
DEVILS LAKE    SUNNY      3  -9  55 S12       30.27F WCI -13
$$

NDZ022-023-025-028>030-036>039-047>053-271900-
SOUTHEAST NORTH DAKOTA

CITY           SKY/WX    TMP DP  RH WIND       PRES   REMARKS
FARGO          SUNNY      2  -6  69 SE7       30.44F WCI -11
6HR MIN TEMP: -13; 6HR MAX TEMP:   2;

JAMESTOWN      CLOUDY     1  -7  68 S14       30.32F WCI -17
$$




USA.gov is the U.S. government's official web portal to all federal, state and local government web resources and services.